Brookings, OR

11:08 AM PDT on July 28, 2017 (GMT -0700)
Brookings State

Weather History for KBOK - January, 2014

Change the Weather History Date:

Wednesday, January 29, 2014

  Actual Average Record
Temperature  
Mean Temperature 49 °F -  
Max Temperature 52 °F 55 °F 73 °F (1989)
Min Temperature 46 °F 40 °F 25 °F (1980)
Degree Days  
Heating Degree Days 16    
Moisture  
Dew Point 50 °F    
Average Humidity 99    
Maximum Humidity 100    
Minimum Humidity 93    
Precipitation  
Precipitation 1.26 in - - ()
Sea Level Pressure  
Sea Level Pressure 30.12 in    
Wind  
Wind Speed 4 mph (SW)    
Max Wind Speed 9 mph    
Max Gust Speed -    
Visibility 2 miles    
Events Fog , Rain    
Averages and records for this station are not official NWS values.
T = Trace of Precipitation, MM = Missing Value Source: NWS Daily Summary

Daily Weather History Graph

Daily Weather History Graph

Search for Another Location

Airport or City:

Trip Planner

Search our weather history database for the weather conditions in past years. The results will help you decide how hot, cold, wet, or windy it might be!

Date:

Astronomy

Jan. 29, 2014 Rise Set
Actual Time 7:32 AM PST 5:28 PM PST
Civil Twilight 7:03 AM PST 5:58 PM PST
Nautical Twilight 6:29 AM PST 6:31 PM PST
Astronomical Twilight 5:56 AM PST 7:04 PM PST
Moon 6:14 AM PST (1/29) 4:34 PM PST (1/29)
Length of Visible Light 10h 55m
Length of Day
9h 55m
Waning Crescent, 2% of the Moon is Illuminated
Jan 29
Waning Crescent
Jan 30
New
Feb 6
First Quarter
Feb 14
Full
Feb 22
Last Quarter

Hourly Weather History & Observations

Time (PST) Temp. Windchill Dew Point Humidity Pressure Visibility Wind Dir Wind Speed Gust Speed Precip Events Conditions
12:08 AM 51.8 °F - 51.8 °F 100% 30.14 in 0.5 mi SE 6.9 mph - 0.01 in Fog , Rain Light Rain
12:15 AM 51.8 °F - 51.8 °F 100% 30.14 in 0.2 mi SE 8.1 mph - 0.02 in Fog , Rain Light Rain
12:31 AM 51.8 °F - 51.8 °F 100% 30.14 in 0.5 mi SSE 9.2 mph - 0.07 in Fog , Rain Rain
12:56 AM 52.0 °F - 50.9 °F 96% 30.14 in 0.8 mi SSE 6.9 mph - 0.13 in Rain Rain
1:15 AM 51.8 °F - 51.8 °F 100% 30.13 in 0.5 mi Variable 5.8 mph - 0.06 in Fog , Rain Rain
1:38 AM 51.8 °F - 51.8 °F 100% 30.13 in 0.8 mi SE 5.8 mph - 0.16 in Rain Rain
1:56 AM 52.0 °F - 50.9 °F 96% 30.12 in 0.8 mi SSE 6.9 mph - 0.21 in Rain Rain
2:56 AM 52.0 °F - 50.9 °F 96% 30.12 in 0.8 mi Variable 5.8 mph - 0.23 in Rain Rain
3:36 AM 51.8 °F - 51.8 °F 100% 30.11 in 0.5 mi Variable 4.6 mph - 0.12 in Fog , Rain Rain
3:49 AM 51.8 °F - 51.8 °F 100% 30.12 in 0.8 mi Calm Calm - 0.18 in Rain Heavy Rain
3:56 AM 50.9 °F - 50.9 °F 100% 30.13 in 0.8 mi Calm Calm - 0.22 in Rain Heavy Rain
4:08 AM 51.8 °F - 51.8 °F 100% 30.11 in 1.0 mi Variable 3.5 mph - 0.05 in Rain Rain
4:40 AM 51.8 °F - 51.8 °F 100% 30.11 in 0.8 mi NW 5.8 mph - 0.13 in Rain Rain
4:56 AM 50.9 °F - 50.9 °F 100% 30.12 in 0.8 mi Calm Calm - 0.17 in Rain Rain
5:08 AM 51.8 °F - 51.8 °F 100% 30.11 in 1.0 mi Calm Calm - 0.02 in Rain Light Rain
5:15 AM 51.8 °F - 51.8 °F 100% 30.10 in 0.5 mi Calm Calm - 0.04 in Fog , Rain Light Rain
5:24 AM 51.8 °F - 51.8 °F 100% 30.10 in 1.0 mi Calm Calm - 0.05 in Rain Light Rain
5:30 AM 51.8 °F - 51.8 °F 100% 30.10 in 1.2 mi Calm Calm - 0.05 in Rain Light Rain
5:40 AM 51.8 °F - 51.8 °F 100% 30.10 in 1.0 mi Calm Calm - 0.07 in Rain Light Rain
5:48 AM 51.8 °F - 51.8 °F 100% 30.10 in 1.5 mi Calm Calm - 0.08 in Rain Light Rain
5:56 AM 50.9 °F - 50.9 °F 100% 30.11 in 1.8 mi Calm Calm - 0.08 in Rain Light Rain
6:08 AM 51.8 °F - 51.8 °F 100% 30.10 in 1.2 mi Variable 3.5 mph - 0.03 in Rain Light Rain
6:16 AM 51.8 °F - 51.8 °F 100% 30.10 in 1.0 mi South 3.5 mph - 0.04 in Rain Rain
6:25 AM 51.8 °F - 51.8 °F 100% 30.10 in 1.5 mi South 3.5 mph - 0.05 in Rain Light Rain
6:37 AM 51.8 °F - 51.8 °F 100% 30.09 in 1.0 mi SE 3.5 mph - 0.06 in Rain Light Rain
6:43 AM 51.8 °F - 51.8 °F 100% 30.11 in 0.5 mi Calm Calm - 0.06 in Fog , Rain Light Rain
6:56 AM 50.9 °F - 50.9 °F 100% 30.12 in 0.2 mi Calm Calm - 0.07 in Fog , Rain Light Rain
7:09 AM 51.8 °F - 51.8 °F 100% 30.12 in 0.8 mi Variable 3.5 mph - 0.03 in Rain Rain
7:35 AM 51.8 °F - 51.8 °F 100% 30.12 in 0.5 mi Calm Calm - 0.06 in Fog , Rain Light Rain
7:56 AM 50.9 °F - 50.9 °F 100% 30.12 in 0.2 mi Variable 4.6 mph - 0.06 in Fog , Rain Light Rain
8:26 AM 51.8 °F - 51.8 °F 100% 30.11 in 0.2 mi Calm Calm - 0.00 in Fog Fog
8:56 AM 50.9 °F - 50.9 °F 100% 30.14 in 0.2 mi South 5.8 mph - 0.00 in Fog Fog
9:08 AM 51.8 °F - 51.8 °F 100% 30.14 in 0.2 mi Variable 3.5 mph - N/A Fog Fog
9:27 AM 51.8 °F - 51.8 °F 100% 30.16 in 0.2 mi Variable 3.5 mph - 0.01 in Fog Fog
9:36 AM 51.8 °F - 51.8 °F 100% 30.16 in 0.2 mi Calm Calm - 0.01 in Fog Fog
9:45 AM 51.8 °F - 51.8 °F 100% 30.15 in 0.2 mi Variable 3.5 mph - 0.01 in Fog Fog
9:56 AM 50.9 °F - 50.9 °F 100% 30.15 in 0.2 mi Calm Calm - 0.01 in Fog Fog
10:21 AM 51.8 °F - 51.8 °F 100% 30.16 in 0.2 mi Variable 4.6 mph - N/A Fog Fog
10:33 AM 51.8 °F - 51.8 °F 100% 30.16 in 0.5 mi South 3.5 mph - N/A Fog Fog
10:56 AM 50.9 °F - 50.9 °F 100% 30.17 in 1.2 mi Variable 4.6 mph - N/A   Overcast
11:05 AM 51.8 °F - 51.8 °F 100% 30.17 in 1.5 mi Variable 3.5 mph - N/A   Overcast
11:10 AM 51.8 °F - 51.8 °F 100% 30.17 in 1.0 mi WSW 5.8 mph - N/A   Overcast
11:15 AM 51.8 °F - 51.8 °F 100% 30.17 in 0.5 mi WSW 5.8 mph - N/A Fog Fog
11:44 AM 51.8 °F - 51.8 °F 100% 30.17 in 0.2 mi Variable 3.5 mph - 0.00 in Fog , Rain Light Rain
11:56 AM 50.9 °F - 50.9 °F 100% 30.17 in 0.2 mi Variable 3.5 mph - 0.00 in Fog Fog
12:07 PM 51.8 °F - 51.8 °F 100% 30.15 in 0.8 mi Calm Calm - 0.00 in   Overcast
12:10 PM 51.8 °F - 51.8 °F 100% 30.15 in 1.2 mi Variable 4.6 mph - 0.00 in   Overcast
12:21 PM 51.8 °F - 51.8 °F 100% 30.15 in 0.8 mi Variable 5.8 mph - 0.00 in   Overcast
12:30 PM 51.8 °F - 51.8 °F 100% 30.15 in 0.5 mi Variable 5.8 mph - 0.00 in Fog Fog
12:37 PM 51.8 °F - 51.8 °F 100% 30.15 in 1.0 mi Variable 3.5 mph - 0.00 in   Overcast
12:39 PM 51.8 °F - 51.8 °F 100% 30.15 in 1.5 mi Variable 4.6 mph - 0.00 in   Overcast
12:56 PM 50.9 °F - 50.9 °F 100% 30.15 in 4.0 mi Variable 3.5 mph - 0.01 in   Overcast
1:17 PM 51.8 °F - 51.8 °F 100% 30.14 in 1.8 mi Variable 3.5 mph - 0.00 in   Overcast
1:33 PM 51.8 °F - 51.8 °F 100% 30.13 in 2.5 mi Variable 5.8 mph - 0.00 in   Overcast
1:40 PM 51.8 °F - 51.8 °F 100% 30.12 in 1.2 mi Variable 4.6 mph - 0.00 in   Overcast
1:43 PM 51.8 °F - 51.8 °F 100% 30.12 in 0.8 mi Variable 3.5 mph - 0.00 in   Overcast
1:56 PM 50.9 °F - 50.9 °F 100% 30.12 in 1.0 mi Variable 3.5 mph - 0.00 in Rain Light Rain
2:06 PM 51.8 °F - 51.8 °F 100% 30.11 in 1.5 mi Variable 3.5 mph - 0.00 in Rain Light Rain
2:12 PM 51.8 °F - 51.8 °F 100% 30.11 in 3.0 mi Variable 3.5 mph - 0.00 in Rain Light Rain
2:33 PM 51.8 °F - 51.8 °F 100% 30.11 in 3.0 mi SW 3.5 mph - 0.00 in Rain Light Rain
2:48 PM 51.8 °F - 51.8 °F 100% 30.11 in 1.8 mi West 3.5 mph - 0.02 in Rain Light Rain
2:56 PM 50.9 °F - 50.9 °F 100% 30.12 in 2.0 mi Variable 3.5 mph - 0.02 in Rain Light Rain
3:03 PM 51.8 °F - 51.8 °F 100% 30.11 in 4.0 mi Variable 3.5 mph - 0.00 in Rain Light Rain
3:41 PM 51.8 °F - 50.0 °F 94% 30.11 in 4.0 mi Calm Calm - 0.00 in   Overcast
3:44 PM 51.8 °F - 50.0 °F 94% 30.11 in 4.0 mi WNW 4.6 mph - 0.00 in   Overcast
3:56 PM 50.0 °F - 50.0 °F 100% 30.12 in 4.0 mi Variable 4.6 mph - 0.00 in   Overcast
4:13 PM 50.0 °F - 48.2 °F 94% 30.10 in 4.0 mi NW 3.5 mph - N/A   Overcast
4:21 PM 50.0 °F - 48.2 °F 94% 30.10 in 5.0 mi WNW 3.5 mph - N/A   Overcast
4:56 PM 48.9 °F - 47.8 °F 96% 30.11 in 5.0 mi NW 5.8 mph - N/A   Overcast
5:09 PM 48.2 °F - 48.2 °F 100% 30.09 in 5.0 mi NW 3.5 mph - N/A   Overcast
5:22 PM 48.2 °F - 46.4 °F 93% 30.09 in 5.0 mi NNW 3.5 mph - N/A   Overcast
5:56 PM 48.9 °F - 46.9 °F 93% 30.10 in 6.0 mi Calm Calm - N/A   Overcast
6:35 PM 48.2 °F - 46.4 °F 93% 30.09 in 6.0 mi Calm Calm - N/A   Overcast
6:56 PM 48.9 °F - 46.9 °F 93% 30.10 in 6.0 mi NW 4.6 mph - N/A   Overcast
7:31 PM 48.2 °F - 46.4 °F 93% 30.09 in 6.0 mi Calm Calm - N/A   Overcast
7:56 PM 47.8 °F - 46.9 °F 97% 30.10 in 6.0 mi NNW 3.5 mph - N/A   Overcast
8:31 PM 46.4 °F - 46.4 °F 100% 30.09 in 7.0 mi Calm Calm - N/A   Mostly Cloudy
8:49 PM 46.4 °F - 46.4 °F 100% 30.09 in 7.0 mi Calm Calm - N/A   Scattered Clouds
8:56 PM 46.9 °F - 45.9 °F 96% 30.10 in 7.0 mi Calm Calm - N/A   Mostly Cloudy
9:14 PM 46.4 °F - 46.4 °F 100% 30.09 in 7.0 mi Calm Calm - N/A   Overcast
9:21 PM 46.4 °F - 46.4 °F 100% 30.09 in 7.0 mi Calm Calm - N/A   Overcast
9:56 PM 46.9 °F - 46.9 °F 100% 30.10 in 6.0 mi Calm Calm - N/A   Overcast
10:20 PM 46.4 °F - 46.4 °F 100% 30.08 in 6.0 mi Calm Calm - N/A   Overcast
10:56 PM 46.9 °F - 46.9 °F 100% 30.08 in 1.8 mi Calm Calm - 0.00 in Rain Light Rain
11:00 PM 46.4 °F - 46.4 °F 100% 30.07 in 1.2 mi Calm Calm - 0.01 in Rain Light Rain
11:08 PM 46.4 °F - 46.4 °F 100% 30.07 in 1.0 mi Calm Calm - 0.02 in Rain Rain
11:16 PM 46.4 °F - 46.4 °F 100% 30.07 in 1.2 mi Calm Calm - 0.03 in Rain Light Rain
11:26 PM 46.4 °F 44.3 °F 46.4 °F 100% 30.07 in 1.8 mi South 4.6 mph - 0.05 in Rain Light Rain
11:33 PM 46.4 °F - 46.4 °F 100% 30.07 in 3.0 mi Calm Calm - 0.05 in Rain Light Rain
11:56 PM 46.9 °F - 46.9 °F 100% 30.07 in 2.5 mi South 3.5 mph - 0.05 in   Overcast